Sturgeon Bay, WI

4:26 AM CDT on September 17, 2019 (GMT -0500)
Door County Cherryland

Weather History for KSUE - August, 2019

Change the Weather History Date:

Thursday, August 22, 2019

  Actual Average Record
Temperature  
Mean Temperature 60 °F -  
Max Temperature 66 °F 76 °F 96 °F (1968)
Min Temperature 54 °F 56 °F 36 °F (1950)
Degree Days  
Heating Degree Days 5    
Growing Degree Days 10 (Base 50)    
Moisture  
Dew Point 53 °F    
Average Humidity 75    
Maximum Humidity 93    
Minimum Humidity 59    
Precipitation  
Precipitation 0.00 in - - ()
Sea Level Pressure  
Sea Level Pressure 30.09 in    
Wind  
Wind Speed 3 mph (NE)    
Max Wind Speed 10 mph    
Max Gust Speed -    
Visibility 10 miles    
Events      
Averages and records for this station are not official NWS values.
T = Trace of Precipitation, MM = Missing Value Source: NWS Daily Summary

Daily Weather History Graph

Daily Weather History Graph

Search for Another Location

Airport or City:

Astronomy

Aug. 22, 2019 Rise Set
Actual Time 5:59 AM CDT 7:44 PM CDT
Civil Twilight 5:28 AM CDT 8:15 PM CDT
Nautical Twilight 4:50 AM CDT 8:53 PM CDT
Astronomical Twilight 4:09 AM CDT 9:34 PM CDT
Moon 11:16 PM CDT (8/22) 12:51 PM CDT (8/22)
Length of Visible Light 14h 46m
Length of Day
13h 44m
Waning Gibbous, 59% of the Moon is Illuminated
Aug 22
Waning Gibbous
Aug 23
Last Quarter
Aug 30
New
Sep 5
First Quarter
Sep 13
Full

Hourly Weather History & Observations

Time (CDT) Temp. Dew Point Humidity Pressure Visibility Wind Dir Wind Speed Gust Speed Precip Events Conditions
12:56 AM 60.1 °F 53.1 °F 78% 30.02 in 10.0 mi ENE 4.6 mph - N/A   Clear
1:56 AM 57.0 °F 53.1 °F 87% 30.03 in 10.0 mi Calm Calm - N/A   Clear
2:56 AM 55.0 °F 53.1 °F 93% 30.03 in 10.0 mi Calm Calm - N/A   Clear
3:56 AM 54.0 °F 52.0 °F 93% 30.03 in 10.0 mi Calm Calm - N/A   Clear
4:56 AM 55.0 °F 52.0 °F 89% 30.03 in 10.0 mi Calm Calm - N/A   Clear
5:56 AM 55.9 °F 53.1 °F 90% 30.04 in 10.0 mi Calm Calm - N/A   Overcast
6:56 AM 59.0 °F 54.0 °F 83% 30.07 in 10.0 mi NE 3.5 mph - N/A   Overcast
7:56 AM 60.1 °F 55.0 °F 83% 30.07 in 10.0 mi ENE 4.6 mph - N/A   Overcast
8:56 AM 61.0 °F 54.0 °F 78% 30.07 in 10.0 mi ENE 5.8 mph - N/A   Overcast
9:56 AM 64.0 °F 54.0 °F 70% 30.09 in 10.0 mi NNE 8.1 mph - N/A   Overcast
10:56 AM 64.9 °F 52.0 °F 63% 30.09 in 10.0 mi North 10.4 mph - N/A   Scattered Clouds
11:56 AM 66.0 °F 51.1 °F 59% 30.11 in 10.0 mi North 9.2 mph - N/A   Scattered Clouds
12:56 PM 64.9 °F 51.1 °F 61% 30.10 in 10.0 mi North 6.9 mph - N/A   Mostly Cloudy
1:56 PM 66.9 °F 52.0 °F 59% 30.10 in 10.0 mi North 6.9 mph - N/A   Overcast
2:56 PM 66.0 °F 51.1 °F 59% 30.11 in 10.0 mi NNE 3.5 mph - N/A   Overcast
3:56 PM 66.9 °F 52.0 °F 59% 30.10 in 10.0 mi Calm Calm - N/A   Partly Cloudy
4:56 PM 64.0 °F 53.1 °F 67% 30.10 in 10.0 mi ENE 5.8 mph - N/A   Overcast
5:56 PM 64.0 °F 52.0 °F 65% 30.11 in 10.0 mi East 3.5 mph - N/A   Overcast
6:56 PM 63.0 °F 53.1 °F 70% 30.11 in 10.0 mi ENE 3.5 mph - N/A   Overcast
7:56 PM 61.0 °F 54.0 °F 78% 30.12 in 10.0 mi Calm Calm - N/A   Overcast
8:56 PM 61.0 °F 55.0 °F 81% 30.14 in 10.0 mi Calm Calm - N/A   Overcast
9:56 PM 61.0 °F 55.9 °F 83% 30.14 in 10.0 mi Calm Calm - N/A   Overcast
10:56 PM 61.0 °F 52.0 °F 72% 30.15 in 10.0 mi NNE 5.8 mph - 0.00 in   Overcast
11:56 PM 59.0 °F 51.1 °F 75% 30.16 in 10.0 mi NNE 5.8 mph - N/A   Scattered Clouds